If you wish to contribute or participate in the discussions about articles you are invited to join SKYbrary as a registered user

 Actions

Annette Island Airport

From SKYbrary Wiki

PANT
Airport
ICAO: PANT – IATA: ANN
Summary
Name Annette Island Airport
Region North America
Territory Alaska US.gif
Location Annette Island, Alaska
Serving Annette Island
Elevation 36.271 m
119 ft
119 ft36.271 m
Type medium airport
Coordinates 55° 2' 32.77" N, 131° 34' 20.04" W
Runways
Designator Length Width Surface ROPS
2/20 1740 m5,708.661 ft
46 m150.919 ft
GVL /
12/30 2284 m7,493.438 ft
46 m150.919 ft
ASP /


METAR
Observation PANT 162253Z AUTO 33006KT 10SM FEW060 01/M13 A3012 RMK SLP202 T00061133 TSNO VIA AUTODIAL
Station Annette, Annette Island Airport
Date/Time 16 February 2019 22:53:00
Wind direction 330°
Wind speed 06 kts
Lowest cloud amount few clouds
Temperature 0.6°C
Dew point
Humidity 34%
QNH hPa
Weather condition n/a

Maps

Terrain

Loading map...

Airport Layout

Loading map...


Accidents & Serious Incidents at or in vicinity of PANT

None on SKYbrary